[[{"header":{"parameterUnit":"m.s-1","parameterCategory":1,"la1":30.2991,"la2":30.254,"lo1":-89.0895,"lo2":-89.0444,"dy":0.0017,"dx":0.0017,"nx":28,"ny":28,"refTime":"2024-04-14T09:00:00:Z","depth":0,"parameterNumber":2,"parameterNumberName":"U-component_of_WINDS"},"data":[0,0,0,0,0,0,0,0,0,0,0,0,0,0,0,0,0,0,0,0,0,0,0,0,0,0,0,0,0,0,0,0,0,0,0,0,0,0,0,0,0,0,0,0,0,0,0,0,0,0,0,0,0,0,0,0,0,0,-3.0685,-3.0686,0,-3.085,-3.0852,-3.0854,-3.0851,-3.0848,-3.0846,-3.0844,-3.1018,-3.1024,-3.1031,0,0,0,0,0,0,0,0,0,0,0,0,0,-3.0369,-3.0375,-3.0684,-3.0686,-3.0689,-3.085,-3.0852,-3.0855,-3.0851,-3.0848,-3.0846,-3.0843,-3.1015,-3.1023,-3.1031,0,0,0,0,0,0,0,0,0,0,0,0,0,-3.0517,-3.0377,-3.0684,-3.0706,-3.071,-3.085,-3.0852,-3.0855,-3.0852,-3.0848,-3.0845,-3.0842,-3.1013,-3.1023,-3.1033,-3.1162,0,0,-3.1063,-3.1068,0,0,0,0,0,0,0,0,-3.0509,-3.0529,-3.0701,-3.0705,-3.0709,-3.0826,-3.0805,-3.0958,-3.0853,-3.0798,-3.0844,-3.084,-3.0957,-3.0971,-3.101,-3.1171,-3.1178,-3.1064,-3.107,-3.1075,-3.1078,0,0,0,0,0,0,0,-3.0499,-3.0522,-3.075,-3.0703,-3.0709,-3.0709,-3.0727,-3.0834,-3.0895,-3.0802,-3.0803,-3.0822,-3.0959,-3.1,-3.1014,-3.1181,-3.1064,-3.1073,-3.1079,-3.1083,-3.1457,-3.146,0,0,0,0,0,0,-3.0483,-3.0513,-3.0745,-3.0755,-3.0599,-3.0718,-3.0737,-3.0792,-3.0893,-3.0905,-3.0825,-3.0821,-3.0985,-3.1002,-3.102,-3.1179,-3.1075,-3.1084,-3.109,-3.1453,-3.1458,-3.1462,0,0,0,0,0,0,-3.0476,-3.0504,-3.0738,-3.0634,-3.0664,-3.0727,-3.0789,-3.0797,-3.0839,-3.091,-3.0921,-3.0856,-3.0983,-3.1006,-3.1127,-3.1185,-3.1089,-3.1098,-3.1448,-3.1454,-3.146,-3.1498,0,0,0,0,0,0,-3.0467,-3.0501,-3.055,-3.0635,-3.067,-3.0841,-3.0792,-3.0803,-3.0856,-3.0853,-3.0942,-3.0954,-3.0982,-3.1112,-3.1137,-3.1197,-3.1106,-3.1443,-3.1451,-3.1458,-3.1492,-3.1504,-3.1515,0,0,0,0,0,-3.0456,-3.0555,-3.0553,-3.0581,-3.0732,-3.0844,-3.0864,-3.0893,-3.0861,-3.0911,-3.0957,-3.0951,-3.1175,-3.1124,-3.1153,-3.1217,-3.144,-3.1449,-3.1457,-3.1487,-3.1502,-3.1515,0,0,0,0,0,0,-3.0477,-3.0567,-3.0565,-3.0695,-3.0762,-3.0844,-3.0908,-3.0909,-3.0987,-3.0981,-3.1015,-3.1036,-3.1157,-3.1199,-3.1141,-3.1348,-3.1303,-3.1318,-3.1316,-3.1331,-3.1343,-3.133,-3.1114,0,0,0,0,0,-3.0496,-3.0579,-3.0653,-3.0761,-3.0794,-3.0845,-3.0895,-3.0912,-3.0983,-3.1012,-3.1067,-3.1137,-3.1224,-3.128,-3.1363,-3.1498,-3.1518,-3.1556,-3.1568,-3.1577,-3.159,-3.1665,-3.1683,-3.149,-3.149,-3.149,0,0,-3.0538,-3.0597,-3.0647,-3.0766,-3.082,-3.0906,-3.0869,-3.0962,-3.1026,-3.1027,-3.1144,-3.1187,-3.1268,-3.1396,-3.1456,-3.1435,-3.1647,-3.1588,-3.1595,-3.1603,-3.1675,-3.1694,-3.171,-3.1496,-3.1495,-3.1494,0,0,-3.0657,-3.071,-3.0805,-3.086,-3.0941,-3.0975,-3.0998,-3.108,-3.1108,-3.1226,-3.1228,-3.1306,-3.1453,-3.1511,-3.156,-3.1701,-3.1699,-3.1728,-3.1789,-3.1862,-3.1877,-3.189,-3.1941,-3.1959,-3.174,-3.174,-3.174,0,-3.0699,-3.0827,-3.0854,-3.0947,-3.1,-3.1003,-3.11,-3.1152,-3.1258,-3.1295,-3.127,-3.1455,-3.151,-3.1653,-3.1687,-3.1726,-3.1754,-3.1718,-3.1872,-3.1886,-3.1899,-3.1948,-3.1967,-3.1743,-3.1743,-3.1742,-3.1742,0,-3.0874,-3.0963,-3.103,-3.113,-3.1191,-3.1286,-3.1329,-3.1387,-3.1398,-3.1435,-3.1555,-3.1621,-3.1718,-3.1753,-3.1765,-3.1898,-3.1882,-3.1865,-3.182,-3.192,-3.1967,-3.1986,-3.1747,-3.1746,-3.1745,-3.1745,0,0,-3.1011,-3.1125,-3.1149,-3.1195,-3.1286,-3.1356,-3.1451,-3.1545,-3.1594,-3.1667,-3.1748,-3.1873,-3.1857,-3.1913,-3.1932,-3.1996,-3.2104,-3.197,-3.1973,-3.1993,-3.2254,-3.2267,-3.2288,-3.2103,-3.2107,-3.211,-3.2248,0,-3.114,-3.1308,-3.1336,-3.1483,-3.1566,-3.1571,-3.1654,-3.1719,-3.1756,-3.1833,-3.1874,-3.1962,-3.1934,-3.1968,-3.2031,-3.2077,-3.2157,-3.2068,-3.218,-3.2184,-3.216,-3.2313,-3.2327,-3.2454,-3.2266,-3.2269,-3.2271,0,-3.1313,-3.1389,-3.1545,-3.1624,-3.166,-3.1734,-3.1822,-3.1895,-3.197,-3.1992,-3.2054,-3.2066,-3.2166,-3.2117,-3.2256,-3.2195,-3.2242,-3.2272,-3.2278,-3.229,-3.2234,-3.2329,-3.2495,-3.2514,-3.23,-3.2298,-3.2296,0,-3.1398,-3.154,-3.1651,-3.169,-3.1785,-3.1837,-3.188,-3.1951,-3.2006,-3.2083,-3.2119,-3.2208,-3.2256,-3.2325,-3.2361,-3.2322,-3.2498,-3.2451,-3.252,-3.2519,-3.2557,-3.2554,-3.2733,-3.2587,-3.2587,-3.2587,-3.2586,0,-3.154,-3.1635,-3.169,-3.1759,-3.1866,-3.1898,-3.2003,-3.2045,-3.2108,-3.2186,-3.2195,-3.2268,-3.2311,-3.239,-3.2419,-3.253,-3.2552,-3.2573,-3.258,-3.2573,-3.257,-3.2605,-3.2597,-3.2592,-3.2591,-3.259,-3.2589,0,-3.1653,-3.1694,-3.1816,-3.1896,-3.1918,-3.1994,-3.2063,-3.213,-3.2166,-3.2265,-3.229,-3.2347,-3.2441,-3.2483,-3.26,-3.2619,-3.2746,-3.2746,-3.272,-3.2723,-3.2789,-3.2782,-3.2997,-3.3027,-3.286,-3.2862,-3.2863,0,-3.1741,-3.1814,-3.1902,-3.1954,-3.1997,-3.2081,-3.2136,-3.2171,-3.2228,-3.2319,-3.2376,-3.247,-3.2547,-3.2697,-3.275,-3.2839,-3.2842,-3.291,-3.2855,-3.2846,-3.2843,-3.2838,-3.2846,-3.2921,-3.2922,-3.2924,-3.2925,0,-3.1893,-3.1909,-3.1988,-3.2074,-3.214,-3.221,-3.2278,-3.2321,-3.2366,-3.243,-3.2526,-3.2585,-3.2704,-3.2797,-3.289,-3.2935,-3.2938,-3.2942,-3.2962,-3.2956,-3.2938,-3.2949,-3.2748,-3.2937,-3.2935,-3.2935,-3.2934,-3.2933,-3.1997,-3.2062,-3.2134,-3.2221,-3.2276,-3.234,-3.2407,-3.2451,-3.2531,-3.2629,-3.2645,-3.2747,-3.2821,-3.2945,-3.2993,-3.3074,-3.3058,-3.3088,-3.3095,-3.3102,-3.3106,-3.2925,-3.3091,-3.3091,-3.3091,-3.309,-3.309,0,-3.2149,-3.2196,-3.2276,-3.2371,-3.244,-3.2435,-3.2511,-3.257,-3.2659,-3.2726,-3.2802,-3.2912,-3.3003,-3.3062,-3.3154,-3.3208,-3.3212,-3.3231,-3.3228,-3.3238,-3.3116,-3.3089,-3.3226,-3.3226,-3.3226,-3.3226,-3.3226,-3.3226,-3.2237,-3.2347,-3.2372,-3.251,-3.2556,-3.2656,-3.2699,-3.2759,-3.2812,-3.2935,-3.301,-3.3047,-3.3112,-3.3209,-3.3292,-3.3307,-3.3341,-3.3361,-3.3376,-3.3261,-3.3247,-3.3233,-3.3208,-3.3368,-3.3368,-3.3492,-3.3493,-3.3494]},{"header":{"parameterUnit":"m.s-1","parameterCategory":1,"la1":30.2991,"la2":30.254,"lo1":-89.0895,"lo2":-89.0444,"dy":0.0017,"dx":0.0017,"nx":28,"ny":28,"refTime":"2024-04-14T09:00:00:Z","depth":0,"parameterNumber":3,"parameterNumberName":"V-component_of_WINDS"},"data":[0,0,0,0,0,0,0,0,0,0,0,0,0,0,0,0,0,0,0,0,0,0,0,0,0,0,0,0,0,0,0,0,0,0,0,0,0,0,0,0,0,0,0,0,0,0,0,0,0,0,0,0,0,0,0,0,0,0,4.1348,4.1347,0,4.1315,4.1314,4.1314,4.1248,4.1247,4.1245,4.1244,4.1211,4.1212,4.1212,0,0,0,0,0,0,0,0,0,0,0,0,0,4.1355,4.1356,4.1348,4.1347,4.1347,4.1315,4.1314,4.1314,4.1248,4.1246,4.1245,4.1243,4.1211,4.1212,4.1212,0,0,0,0,0,0,0,0,0,0,0,0,0,4.134,4.1356,4.1348,4.131,4.1306,4.1315,4.1314,4.1314,4.1248,4.1246,4.1244,4.1243,4.1211,4.1212,4.1212,4.1255,0,0,4.1214,4.1214,0,0,0,0,0,0,0,0,4.1341,4.134,4.1316,4.1313,4.1309,4.1283,4.1305,4.1294,4.1249,4.127,4.1244,4.1242,4.1237,4.1235,4.1233,4.1253,4.1252,4.1214,4.1214,4.1215,4.1215,0,0,0,0,0,0,0,4.1342,4.1341,4.1334,4.1316,4.1311,4.1295,4.1291,4.1303,4.1265,4.1268,4.1264,4.126,4.1235,4.1233,4.1232,4.1252,4.1214,4.1214,4.1215,4.1215,4.1306,4.1308,0,0,0,0,0,0,4.1349,4.1342,4.1336,4.1334,4.132,4.1297,4.1292,4.1293,4.1265,4.1259,4.1262,4.1258,4.1233,4.1232,4.1231,4.1279,4.1215,4.1215,4.1215,4.1304,4.1306,4.1309,0,0,0,0,0,0,4.1349,4.1349,4.1337,4.1337,4.1334,4.1299,4.1301,4.1294,4.1292,4.126,4.1253,4.1267,4.1232,4.123,4.125,4.1277,4.1215,4.1216,4.1301,4.1305,4.1308,4.1377,0,0,0,0,0,0,4.135,4.1349,4.1365,4.1337,4.1334,4.1356,4.1303,4.1295,4.1293,4.1287,4.1263,4.1258,4.123,4.1249,4.125,4.1277,4.1216,4.1299,4.1303,4.1307,4.1372,4.1382,4.1391,0,0,0,0,0,4.135,4.1385,4.1366,4.1365,4.1353,4.1357,4.1356,4.1323,4.1296,4.1311,4.1291,4.1258,4.1274,4.1252,4.1252,4.128,4.1297,4.1302,4.1306,4.1368,4.138,4.139,0,0,0,0,0,0,4.1417,4.1381,4.1359,4.1386,4.1376,4.1346,4.1365,4.1337,4.1334,4.1328,4.1288,4.1283,4.1308,4.1296,4.1271,4.132,4.128,4.1286,4.1327,4.1338,4.1348,4.135,4.1217,0,0,0,0,0,4.1435,4.1441,4.141,4.1437,4.1433,4.14,4.1401,4.1377,4.1364,4.1359,4.134,4.1329,4.1332,4.1335,4.1335,4.137,4.1364,4.1389,4.1399,4.1406,4.1411,4.143,4.1441,4.1324,4.1324,4.1324,0,0,4.1472,4.1453,4.146,4.145,4.1439,4.1447,4.1397,4.1407,4.1413,4.1361,4.1378,4.1364,4.1349,4.1377,4.1388,4.1368,4.1442,4.1412,4.1419,4.1419,4.1436,4.1447,4.1457,4.1327,4.1327,4.1326,0,0,4.1543,4.153,4.1551,4.1541,4.1525,4.1503,4.1508,4.1484,4.1472,4.1489,4.145,4.1457,4.1462,4.1454,4.145,4.152,4.149,4.1522,4.157,4.1589,4.1598,4.1606,4.1632,4.1641,4.1526,4.1527,4.1527,0,4.1592,4.1602,4.1566,4.1579,4.1577,4.153,4.1552,4.1544,4.1529,4.1529,4.1506,4.1512,4.1499,4.1524,4.1541,4.154,4.1545,4.1524,4.1599,4.1607,4.1614,4.1638,4.1648,4.1531,4.153,4.153,4.1529,0,4.1662,4.167,4.169,4.1676,4.1676,4.1694,4.1661,4.1665,4.1642,4.1623,4.1641,4.1624,4.162,4.1625,4.1601,4.1647,4.1635,4.1607,4.1566,4.163,4.1652,4.166,4.1536,4.1535,4.1534,4.1533,0,0,4.1774,4.1741,4.1749,4.1743,4.1722,4.1728,4.1744,4.174,4.1745,4.1737,4.175,4.1756,4.173,4.1726,4.1701,4.1718,4.1775,4.1687,4.1686,4.1704,4.1826,4.1848,4.1859,4.1756,4.1757,4.1758,4.1827,0,4.1841,4.1866,4.1835,4.1867,4.1875,4.1831,4.1845,4.1834,4.1817,4.1822,4.1803,4.1808,4.1773,4.177,4.1784,4.1765,4.1799,4.176,4.1768,4.1769,4.1773,4.187,4.1893,4.1958,4.1835,4.1837,4.1838,0,4.1923,4.1918,4.1951,4.1929,4.1931,4.1944,4.1939,4.1944,4.1931,4.1917,4.1914,4.1885,4.19,4.1861,4.1882,4.1856,4.1858,4.1849,4.1851,4.185,4.1807,4.1873,4.1978,4.1989,4.1851,4.185,4.1849,0,4.2002,4.2004,4.2024,4.202,4.1994,4.2005,4.1995,4.198,4.1981,4.1977,4.1977,4.1975,4.1974,4.1973,4.1945,4.1919,4.197,4.1928,4.196,4.1961,4.1972,4.1972,4.208,4.1973,4.1973,4.1973,4.1973,0,4.208,4.2102,4.2059,4.2072,4.2095,4.206,4.2085,4.207,4.2058,4.2067,4.203,4.204,4.2001,4.2008,4.1986,4.2007,4.2007,4.1997,4.1991,4.2,4.2002,4.2001,4.1996,4.1976,4.1975,4.1975,4.1974,0,4.2172,4.2144,4.2163,4.2138,4.2132,4.2151,4.2129,4.214,4.2121,4.2134,4.2135,4.2105,4.2111,4.2082,4.2083,4.2068,4.2101,4.2087,4.2105,4.2101,4.2134,4.2132,4.2246,4.2259,4.2144,4.2145,4.2146,0,4.2223,4.2239,4.2216,4.2219,4.2211,4.2218,4.2218,4.2184,4.2186,4.2174,4.2186,4.2189,4.2189,4.22,4.2179,4.2179,4.2165,4.2205,4.2165,4.2175,4.2167,4.2166,4.2168,4.2214,4.2215,4.2216,4.2217,0,4.2319,4.2304,4.2306,4.2303,4.2304,4.2301,4.2295,4.23,4.2263,4.2268,4.2273,4.2273,4.2274,4.2277,4.2273,4.2264,4.2235,4.223,4.2238,4.2248,4.2258,4.2253,4.2128,4.2228,4.2227,4.2226,4.2225,4.2225,4.2392,4.2405,4.239,4.2394,4.2385,4.2381,4.239,4.2373,4.2376,4.2374,4.2354,4.2363,4.2351,4.2343,4.2337,4.2344,4.2325,4.2336,4.2339,4.2342,4.2348,4.2257,4.2343,4.2343,4.2343,4.2342,4.2342,0,4.2486,4.2474,4.2478,4.247,4.2474,4.2446,4.2438,4.2443,4.2451,4.2442,4.2443,4.245,4.2453,4.2433,4.2433,4.2443,4.243,4.2445,4.2444,4.2442,4.2365,4.2358,4.2455,4.2455,4.2455,4.2455,4.2455,4.2455,4.2534,4.2554,4.2539,4.2555,4.2544,4.2552,4.255,4.2546,4.2539,4.2548,4.255,4.2537,4.2524,4.2523,4.2526,4.252,4.2522,4.2541,4.2531,4.2459,4.2448,4.2437,4.2431,4.2542,4.2542,4.2608,4.2608,4.2609]}]]